FW2782 Weather Reports


time (UTC)temp
C
wind
direction
speed
KPH
gust
KPH
rain 1hr
cm
rain 24hr
cm
rain mn
cm
humidity
%
barometer
mb
20260510064552 15 44 0.0 4.8 0.00 0.13 0.08 94 1011.7
20260510063056 14 346 0.0 0.0 0.00 0.13 0.08 95 1011.6
20260510061550 13 346 0.0 3.2 0.00 0.13 0.08 95 1011.5
20260510060054 13 344 0.0 1.6 0.00 0.13 0.08 95 1011.4
20260510054550 13 344 0.0 3.2 0.00 0.13 0.08 95 1011.0
20260510053050 13 344 0.0 0.0 0.00 0.13 0.08 95 1011.2
20260510051620 12 344 0.0 1.6 0.00 0.13 0.08 95 1011.1
20260510050047 12 344 0.0 1.6 0.00 0.13 0.08 94 1011.0
20260510044547 12 344 0.0 1.6 0.00 0.13 0.08 94 1010.9
20260510043117 12 344 0.0 0.0 0.00 0.13 0.08 94 1010.9
20260510041550 12 344 0.0 0.0 0.00 0.13 0.08 93 1011.3
20260510040044 12 344 0.0 1.6 0.00 0.13 0.08 93 1011.3
20260510034545 12 344 0.0 3.2 0.00 0.13 0.08 93 1011.3
20260510033041 13 344 0.0 1.6 0.00 0.13 0.08 93 1011.4
20260510031607 13 344 0.0 1.6 0.03 0.13 0.08 93 1011.4
20260510030038 13 344 0.0 1.6 0.03 0.13 0.08 93 1011.6
20260510024538 13 344 0.0 4.8 0.05 0.13 0.08 94 1011.4
20260510023044 13 337 1.6 4.8 0.05 0.13 0.08 94 1011.8
20260510021538 13 331 0.0 3.2 0.03 0.10 0.05 93 1012.1
20260510020032 13 331 0.0 1.6 0.05 0.10 0.05 93 1012.2
20260510014532 13 331 0.0 0.0 0.03 0.08 0.05 92 1012.1
20260510013030 13 331 0.0 1.6 0.03 0.08 0.05 92 1011.8
20260510011530 13 331 0.0 3.2 0.05 0.08 0.05 92 1011.7
20260510010031 13 333 1.6 6.4 0.03 0.05 0.03 92 1011.8
20260510004527 13 332 3.2 6.4 0.03 0.05 0.03 92 1011.9
20260510003027 13 343 1.6 6.4 0.03 0.05 0.03 92 1012.2
20260510001525 13 74 1.6 4.8 0.00 0.05 0.00 92 1012.4
20260510000024 13 75 0.0 3.2 0.00 0.05 0.00 91 1012.5
20260509234524 14 76 0.0 1.6 0.00 0.05 0.00 91 1012.6
20260509233021 14 76 0.0 3.2 0.00 0.05 0.00 90 1012.4
20260509231519 14 76 0.0 3.2 0.00 0.05 0.00 90 1012.2
20260509230018 14 76 0.0 4.8 0.00 0.05 0.00 89 1012.1
20260509224517 14 77 0.0 3.2 0.05 0.05 0.00 88 1012.3
20260509223016 15 77 0.0 3.2 0.05 0.05 0.00 87 1011.9
20260509221512 15 77 0.0 3.2 0.05 0.05 0.00 86 1012.3
20260509220008 15 144 0.0 4.8 0.05 0.05 0.05 85 1012.5
20260509214508 16 159 0.0 3.2 0.00 0.00 0.00 80 1013.1
20260509213009 17 160 1.6 4.8 0.00 0.00 0.00 73 1013.3
20260509211507 17 127 1.6 8.0 0.00 0.00 0.00 65 1013.2
20260509210007 17 163 0.0 3.2 0.00 0.00 0.00 63 1013.1
20260509204506 17 168 0.0 6.4 0.00 0.00 0.00 64 1013.5
20260509203013 17 156 1.6 11.3 0.00 0.00 0.00 62 1013.5
20260509201504 17 101 4.8 12.9 0.00 0.00 0.00 61 1013.2
20260509200004 18 195 3.2 11.3 0.00 0.00 0.00 59 1013.1
20260509194505 18 132 1.6 12.9 0.00 0.00 0.00 59 1013.0
20260509193004 18 11 1.6 8.0 0.00 0.00 0.00 59 1013.2
20260509191503 18 101 3.2 11.3 0.00 0.00 0.00 58 1013.2
20260509190002 18 360 1.6 12.9 0.00 0.00 0.00 58 1012.9
20260509184502 18 27 1.6 11.3 0.00 0.00 0.00 58 1013.0
20260509183007 18 200 1.6 6.4 0.00 0.00 0.00 59 1013.1
20260509181610 18 101 1.6 8.0 0.00 0.00 0.00 58 1013.0
20260509180058 19 151 1.6 14.5 0.00 0.00 0.00 59 1012.8
20260509174555 19 93 4.8 16.1 0.00 0.00 0.00 59 1012.6
20260509173106 20 297 1.6 17.7 0.00 0.00 0.00 57 1012.7
20260509171603 20 103 1.6 8.0 0.00 0.00 0.00 56 1012.8
20260509170052 20 148 1.6 4.8 0.00 0.00 0.00 55 1012.8
20260509164553 21 101 1.6 14.5 0.00 0.00 0.00 54 1012.7
20260509163059 21 77 1.6 11.3 0.00 0.00 0.00 55 1012.7
20260509161548 21 161 9.7 20.9 0.00 0.00 0.00 55 1012.8
20260509160052 21 161 3.2 19.3 0.00 0.00 0.00 54 1012.9
20260509154547 21 29 6.4 17.7 0.00 0.00 0.00 51 1013.0
20260509153050 21 191 4.8 24.1 0.00 0.00 0.00 52 1013.2
20260509151545 21 177 6.4 17.7 0.00 0.00 0.00 49 1013.5
20260509150042 22 163 3.2 20.9 0.00 0.00 0.00 50 1013.4
20260509144543 21 158 8.0 25.7 0.00 0.00 0.00 53 1013.7
20260509143039 21 96 6.4 19.3 0.00 0.00 0.00 52 1014.2
20260509141544 21 161 1.6 17.7 0.00 0.00 0.00 57 1014.1
20260509140036 21 181 6.4 16.1 0.00 0.00 0.00 57 1014.3
20260509134543 22 134 8.0 17.7 0.00 0.00 0.00 56 1014.5
20260509133032 22 117 8.0 19.3 0.00 0.00 0.00 57 1014.8
20260509131533 22 164 9.7 19.3 0.00 0.00 0.00 55 1015.0
20260509130031 22 148 8.0 22.5 0.00 0.00 0.00 55 1014.9
20260509124531 22 144 8.0 20.9 0.00 0.00 0.00 54 1015.1
20260509123029 22 163 8.0 17.7 0.00 0.00 0.00 55 1015.2
20260509121528 22 161 8.0 25.7 0.00 0.00 0.00 55 1015.3
20260509120025 22 71 8.0 19.3 0.00 0.00 0.00 55 1015.5
20260509114525 22 145 9.7 22.5 0.00 0.00 0.00 53 1015.6
20260509113024 22 153 8.0 17.7 0.00 0.00 0.00 52 1015.8
20260509111522 22 111 8.0 24.1 0.00 0.00 0.00 50 1015.7
20260509110021 22 47 6.4 14.5 0.00 0.00 0.00 52 1015.9
20260509104520 22 109 4.8 16.1 0.00 0.00 0.00 49 1016.0
20260509103119 22 118 4.8 19.3 0.00 0.00 0.00 48 1016.1
20260509101515 22 46 4.8 20.9 0.00 0.00 0.00 49 1016.2
20260509100015 22 147 8.0 20.9 0.00 0.00 0.00 50 1016.1
20260509094511 22 132 3.2 22.5 0.00 0.00 0.00 51 1016.2
20260509093009 21 332 4.8 20.9 0.00 0.00 0.00 49 1016.4
20260509091509 21 144 4.8 14.5 0.00 0.00 0.00 51 1016.4
20260509090004 21 119 3.2 17.7 0.00 0.00 0.00 59 1016.6
20260509084501 21 118 4.8 11.3 0.00 0.00 0.00 60 1016.6
20260509083059 20 111 1.6 12.9 0.00 0.00 0.00 62 1016.6
20260509081558 19 132 1.6 6.4 0.00 0.00 0.00 69 1016.5
20260509080122 18 122 1.6 6.4 0.00 0.00 0.00 70 1016.5
20260509074546 16 132 0.0 4.8 0.00 0.00 0.00 75 1016.6
20260509073128 15 117 3.2 6.4 0.00 0.00 0.00 75 1016.6
20260509071536 14 121 3.2 6.4 0.00 0.00 0.00 79 1016.7